403  
ASUS42 KMHX 171926  
RWRMHX  
WEATHER ROUNDUP FOR EASTERN NORTH CAROLINA  
NATIONAL WEATHER SERVICE NEWPORT/MOREHEAD CITY NC  
300 PM EDT TUE SEP 17 2019  
 
NOTE: "FAIR" INDICATES FEW OR NO CLOUDS BELOW 12,000 FEET  
WITH NO SIGNIFICANT WEATHER AND/OR S TO VISIBILITY
 
 
NCZ015>017-031-032-045>047-102-103-172000-  
NORTH COAST  
 
CITY SKY/WX TMP DP RH WIND PRES REMARKS
 
EDENTON NOT AVBL  
ELIZABETH CITY PTSUNNY 80 67 64 NE17G24 30.01S  
KITTY HAWK MOCLDY 77 68 73 NE13G21 29.97F  
MANTEO PTSUNNY 77 69 75 NE18 29.98F  
 

 
 
NCZ045>047-081-094-103-104-172000-  
CENTRAL COAST  
 
CITY SKY/WX TMP DP RH WIND PRES REMARKS
 
FRISCO FAIR N/A N/A N/A NE13G25 29.94S  
 

 
 
NCZ095-097-098-100-101-172000-  
SOUTHERN COAST  
 
CITY SKY/WX TMP DP RH WIND PRES REMARKS
 
BEAUFORT FAIR 84 69 60 NE14G25 29.93F  
CEDAR ISLAND NOT AVBL  
JACKSONVILLE FAIR 88 67 49 NE14 29.93F  
PINEY ISLAND FAIR 83 71 67 MISG 29.94F  
WILMINGTON FAIR 91 67 44 NE12 29.93F  
 

 
 
NCZ011>013-027>030-043-044-078>080-089-090>093-098-172000-  
COASTAL PLAIN  
 
CITY SKY/WX TMP DP RH WIND PRES REMARKS
 
AHOSKIE NOT AVBL  
CLINTON FAIR 88 70 54 NE7 29.97S  
ELIZABETHTOWN FAIR 88 67 48 E8 29.95F  
GOLDSBORO FAIR 86 68 54 NE13 29.96F  
GREENVILLE FAIR 86 64 48 NE15 30.00S  
HAVELOCK FAIR 87 67 51 NE16 29.95F  
KENANSVILLE PTSUNNY 86 70 58 NE7 29.96F  
KINSTON PTSUNNY 82 66 57 NE9 29.98R  
NEW BERN FAIR 85 68 56 NE14G23 29.96F  
RICHLANDS PTSUNNY 87 69 54 NE12G21 29.95  
ROCKY MOUNT PTSUNNY 86 68 54 NE8 29.99F  
WASHINGTON FAIR 84 65 52 NE13 29.98F  
WHITEVILLE FAIR 88 66 47 NE5 29.94F  
 

 
 
AMZ130-135-150-152-154-156-158-170-250-252-270-ANZ085-086-088-633-658-670-172000-  
MARINE OBSERVATIONS  
 
STATION/POSITION TIME TEMP WIND PRES WAVE SWELL
 
AIR SEA DIR/SP/G HT/PER HT/PER  
(UTC) (F) (DEG/KT/KT) (MB) (FT/S) (FT/S)  
64 E VA BEACH 1850 74 75 50/ 21/ 23 1015.7 7/12 3/12  
DUCK 1848 75 40/ 21/ 25 1015.4  
2 E DUCK 1900 78 N/A 5/ 5 2/12  
10 NE DUCK 1900 77 N/A 6/ 6 2/13  
OREGON INLET 1836 77 80 30/ 14/ 24 1014.6  
13E OREGON INLT 1846 77 N/A 6/11 3/11  
HATTERAS CG 1836 80 80 40/ 15/ 21 1013.9  
DIAMOND BUOY 1910 81 83 40/ 19/ 23 1012.5  
CAPE LOOKOUT 1900 80 30/ 23/ 25 1013.5  
BEAUFORT LAB 1836 82 82 40/ 14/ 18 1014.6  
30 SE NEW RVR IN 1908 81 82 60/ 19/ 27 1012.8  
30 SE NEW RVR IN 1900 82 N/A 8/10 3/11  
27 SE WRIGHTSVLE 1908 80 82 40/ 19/ 25 1011.8  
5 SE WRIGHTSVLE 1908 82 82 60/ 14/ 17 1013.2  
27 SE WRIGHTSVL 1908 80 82 40/ 19/ 25 1011.8  
FRYING PAN BUOY 1910 81 83 20/ 21/ 25 1012.4  
225 S CAPE HAT 1910 81 10/ 29/ 39 1004.6  
41 SE CHARLESTON 1900 83 10/ 16/ 19 1013.2  
 

 
 
 
CLICK HERE TO GO TO PREVIOUS BULLETINS.

The Nexlab NC Page Main Text Page